[[[{"header":{"parameterUnit":"kt","parameterCategory":2,"dx":1,"dy":1,"la1":30.253999710083008,"la2":30.299108505249023,"lo1":-89.0895004272461,"lo2":-89.04439544677734,"nx":28,"ny":28,"refTime":"2022-10-20T21:00:00:Z","depth":0,"parameterNumber":1,"parameterNumberName":"U-component_of_WINDS"},"data":[0.2672,0.2622,0.2603,0.2537,0.2509,0.2461,0.2437,0.2404,0.2373,0.2313,0.2275,0.225,0.221,0.2159,0.2116,0.2106,0.2089,0.2086,0.2074,0.2105,0.2108,0.2111,0.2122,0.2083,0.2083,0.2044,0.2043,0.2043,0.2699,0.2671,0.2631,0.2578,0.2543,0.2535,0.2492,0.2463,0.242,0.2381,0.2342,0.2287,0.224,0.22,0.2152,0.2128,0.212,0.2116,0.2117,0.2111,0.2144,0.2155,0.2123,0.2123,0.2123,0.2123,0.2123,0.2123,0.2744,0.2715,0.2672,0.2627,0.2595,0.256,0.2528,0.2498,0.2458,0.2405,0.2389,0.2339,0.2295,0.2226,0.2198,0.2158,0.2158,0.2147,0.2144,0.2141,0.2142,0.2201,0.2149,0.2149,0.2149,0.2149,0.2149,0,0.277,0.2756,0.2715,0.2669,0.2635,0.2597,0.2559,0.2538,0.25,0.2468,0.2419,0.2388,0.2326,0.2277,0.2227,0.2199,0.2185,0.2181,0.2173,0.218,0.2193,0.2185,0.224,0.2182,0.2182,0.2182,0.2183,0.2183,0.2813,0.2781,0.2726,0.27,0.2674,0.2632,0.2603,0.2571,0.2542,0.2489,0.2464,0.2415,0.2374,0.2299,0.2262,0.2214,0.2207,0.2187,0.2199,0.2208,0.2206,0.2208,0.2204,0.2185,0.2184,0.2184,0.2184,0,0.284,0.2807,0.275,0.2698,0.2684,0.2652,0.2606,0.2575,0.2548,0.2501,0.2488,0.2446,0.2398,0.2364,0.2301,0.2285,0.223,0.2225,0.2246,0.2243,0.2221,0.2224,0.2157,0.2147,0.2188,0.2187,0.2187,0,0.2863,0.2822,0.2775,0.2744,0.2697,0.2666,0.262,0.2592,0.2553,0.2516,0.2495,0.246,0.2422,0.2382,0.2357,0.2306,0.2295,0.2279,0.2272,0.228,0.2282,0.2262,0.2264,0.226,0.226,0.226,0.2261,0,0.2907,0.2833,0.2782,0.276,0.2699,0.2675,0.2649,0.2605,0.2576,0.2533,0.2514,0.2465,0.2439,0.2402,0.237,0.238,0.2308,0.2314,0.2291,0.2292,0.2276,0.2277,0.2228,0.2261,0.2261,0.2261,0.2262,0,0.292,0.2878,0.2809,0.2758,0.2739,0.2705,0.2656,0.2619,0.2574,0.2556,0.2522,0.2503,0.2456,0.2465,0.2399,0.2421,0.2396,0.2376,0.2374,0.2366,0.2377,0.2354,0.2312,0.2306,0.2362,0.2363,0.2363,0,0.2979,0.29,0.2873,0.2807,0.2766,0.2745,0.2707,0.2667,0.264,0.2601,0.2571,0.2525,0.2525,0.2506,0.2478,0.2444,0.2416,0.2447,0.2389,0.2388,0.2402,0.2363,0.2365,0.2325,0.2374,0.2372,0.2372,0,0.3021,0.2946,0.2936,0.2909,0.2852,0.2817,0.2773,0.2721,0.2696,0.2654,0.2615,0.2551,0.2547,0.2515,0.2494,0.2467,0.2435,0.2467,0.2465,0.2462,0.2376,0.2378,0.2371,0.2426,0.2425,0.2424,0.238,0,0.3048,0.3003,0.2976,0.2916,0.2883,0.284,0.2803,0.2773,0.2757,0.2729,0.2672,0.2628,0.2574,0.2557,0.254,0.2489,0.2491,0.2488,0.2493,0.2468,0.2453,0.2446,0.252,0.252,0.252,0.2519,0,0,0.3112,0.3047,0.3017,0.2973,0.2943,0.2921,0.2878,0.2847,0.2783,0.2762,0.2766,0.2668,0.2631,0.2566,0.2555,0.2533,0.252,0.2529,0.248,0.2476,0.2472,0.2456,0.245,0.2519,0.2519,0.2519,0.2519,0,0.3114,0.308,0.3038,0.3004,0.2952,0.2924,0.2915,0.2859,0.2839,0.2782,0.2763,0.2724,0.2646,0.261,0.2582,0.2537,0.2524,0.2524,0.2512,0.2481,0.2477,0.2473,0.2457,0.2452,0.2519,0.2519,0.2519,0,0.3147,0.3107,0.3083,0.3014,0.298,0.2937,0.2934,0.2889,0.2857,0.2832,0.2776,0.2746,0.2695,0.2638,0.261,0.2612,0.253,0.2549,0.2548,0.2544,0.2511,0.2507,0.2502,0.2559,0.2559,0.256,0,0,0.3154,0.3112,0.3058,0.3012,0.2992,0.2949,0.2922,0.2902,0.2857,0.2839,0.2801,0.2757,0.2711,0.2681,0.2636,0.2578,0.2565,0.2555,0.2553,0.2552,0.2547,0.2515,0.251,0.2561,0.2561,0.2561,0,0,0.3156,0.3092,0.3083,0.3025,0.2984,0.2926,0.2899,0.2886,0.2841,0.2842,0.2805,0.2791,0.2737,0.2708,0.2728,0.2637,0.2643,0.2637,0.2658,0.2655,0.2653,0.266,0.2717,0,0,0,0,0,0.3139,0.31,0.3093,0.3078,0.2989,0.2931,0.2919,0.2888,0.2893,0.2873,0.2838,0.2826,0.2711,0.2728,0.2713,0.269,0.2576,0.2573,0.2571,0.2583,0.258,0.2578,0,0,0,0,0,0,0.3132,0.3114,0.3094,0.3035,0.3015,0.2932,0.2934,0.2924,0.2895,0.2893,0.2833,0.2824,0.2796,0.2733,0.272,0.2699,0.2721,0.2575,0.2572,0.257,0.2582,0.258,0.2578,0,0,0,0,0,0.3127,0.3112,0.2979,0.3035,0.3018,0.2968,0.2935,0.2927,0.2903,0.2849,0.284,0.2883,0.2796,0.2783,0.2725,0.2706,0.273,0.2725,0.2573,0.2571,0.257,0.2581,0,0,0,0,0,0,0.3123,0.3104,0.2975,0.2968,0.3047,0.2972,0.2959,0.293,0.2861,0.2851,0.2897,0.2897,0.2796,0.2785,0.2775,0.271,0.2737,0.2732,0.2729,0.2572,0.257,0.2569,0,0,0,0,0,0,0.3112,0.3099,0.2972,0.2988,0.2983,0.2976,0.2964,0.2911,0.286,0.2912,0.291,0.2898,0.2811,0.2787,0.2779,0.2696,0.2743,0.2738,0.2735,0.2733,0.2571,0.257,0,0,0,0,0,0,0.3106,0.3094,0.299,0.2986,0.2982,0.2906,0.2927,0.2839,0.2876,0.2916,0.2878,0.288,0.2813,0.2804,0.2782,0.2703,0.2698,0.2743,0.274,0.2737,0.2736,0,0,0,0,0,0,0,0.3101,0.3184,0.3014,0.2984,0.2981,0.2908,0.2906,0.2905,0.2876,0.2877,0.2878,0.2879,0.277,0.2765,0.276,0.2708,0,0,0.2743,0.2741,0,0,0,0,0,0,0,0,0.3189,0.3185,0.3013,0.3012,0.3011,0.2908,0.2907,0.2905,0.2876,0.2877,0.2878,0.2879,0.2769,0.2764,0.276,0,0,0,0,0,0,0,0,0,0,0,0,0,0,0,0.3013,0.3012,0,0.2908,0.2907,0.2905,0.2877,0.2877,0.2878,0.2878,0.2767,0.2764,0.276,0,0,0,0,0,0,0,0,0,0,0,0,0,0,0,0,0,0,0,0,0,0,0,0,0,0,0,0,0,0,0,0,0,0,0,0,0,0,0,0,0,0,0,0,0,0,0,0,0,0,0,0,0,0,0,0,0,0,0,0,0,0,0,0,0,0,0,0,0]}],[{"header":{"parameterUnit":"kt","parameterCategory":2,"dx":1,"dy":1,"la1":30.253999710083008,"la2":30.299108505249023,"lo1":-89.0895004272461,"lo2":-89.04439544677734,"nx":28,"ny":28,"refTime":"2022-10-20T21:00:00:Z","depth":0,"parameterNumber":2,"parameterNumberName":"V-component_of_WINDS"},"data":[-5.3339,-5.3437,-5.3432,-5.3539,-5.3552,-5.3625,-5.3648,-5.3678,-5.3699,-5.3783,-5.383,-5.3832,-5.3849,-5.3902,-5.3951,-5.395,-5.3972,-5.4012,-5.4004,-5.3833,-5.3809,-5.3786,-5.3764,-5.4016,-5.4016,-5.4184,-5.4185,-5.4187,-5.3217,-5.3232,-5.3287,-5.3336,-5.3383,-5.3342,-5.3376,-5.3418,-5.3483,-5.3509,-5.3554,-5.3627,-5.3682,-5.3685,-5.3736,-5.378,-5.3763,-5.3795,-5.3793,-5.3796,-5.3612,-5.3589,-5.3808,-5.3808,-5.3808,-5.3808,-5.3808,-5.3808,-5.2994,-5.3052,-5.3078,-5.3138,-5.316,-5.3193,-5.3246,-5.3248,-5.33,-5.3354,-5.3334,-5.3406,-5.343,-5.3487,-5.3503,-5.3559,-5.3521,-5.3553,-5.3562,-5.3571,-5.3584,-5.3348,-5.3566,-5.3565,-5.3565,-5.3564,-5.3564,0,-5.2829,-5.282,-5.2871,-5.2922,-5.2964,-5.3002,-5.3035,-5.3067,-5.3042,-5.3086,-5.3149,-5.3183,-5.325,-5.3307,-5.3352,-5.3362,-5.3322,-5.3316,-5.3338,-5.3352,-5.3358,-5.3358,-5.3061,-5.331,-5.3308,-5.3306,-5.3305,-5.3304,-5.2605,-5.2672,-5.2695,-5.2733,-5.2749,-5.2808,-5.2842,-5.2815,-5.2852,-5.2887,-5.2938,-5.2994,-5.3038,-5.3137,-5.3135,-5.3184,-5.3165,-5.3262,-5.3172,-5.3182,-5.317,-5.3167,-5.3175,-5.328,-5.3283,-5.3286,-5.3288,0,-5.248,-5.2468,-5.257,-5.2585,-5.2591,-5.2662,-5.2674,-5.273,-5.2723,-5.2799,-5.2814,-5.2805,-5.2865,-5.2847,-5.2911,-5.29,-5.3017,-5.2996,-5.301,-5.3006,-5.3092,-5.3085,-5.337,-5.3407,-5.3142,-5.3145,-5.3147,0,-5.2285,-5.2374,-5.2352,-5.2411,-5.2509,-5.2479,-5.2576,-5.258,-5.26,-5.2658,-5.261,-5.2665,-5.2633,-5.2686,-5.2669,-5.2761,-5.2772,-5.277,-5.2765,-5.2776,-5.2777,-5.2796,-5.2784,-5.2747,-5.2746,-5.2744,-5.2743,0,-5.2093,-5.2183,-5.2279,-5.2298,-5.2321,-5.2367,-5.2378,-5.2399,-5.2432,-5.247,-5.2491,-5.2537,-5.2563,-5.2599,-5.2578,-5.2518,-5.2689,-5.2602,-5.2687,-5.2688,-5.2727,-5.2725,-5.2981,-5.2742,-5.2741,-5.2741,-5.274,0,-5.1934,-5.1976,-5.2116,-5.2135,-5.2159,-5.2222,-5.2267,-5.2316,-5.2341,-5.2334,-5.2364,-5.2329,-5.2406,-5.2322,-5.2429,-5.2358,-5.2386,-5.239,-5.2395,-5.2403,-5.231,-5.2459,-5.2702,-5.2729,-5.2408,-5.2405,-5.2403,0,-5.1719,-5.1856,-5.1832,-5.1965,-5.2026,-5.1969,-5.2037,-5.206,-5.2058,-5.2108,-5.2104,-5.2161,-5.2094,-5.2109,-5.2164,-5.2162,-5.2254,-5.2149,-5.2222,-5.2225,-5.2221,-5.2444,-5.2486,-5.2651,-5.2367,-5.237,-5.2373,0,-5.155,-5.1578,-5.1603,-5.1624,-5.165,-5.17,-5.1778,-5.1828,-5.1864,-5.1893,-5.1959,-5.2036,-5.199,-5.2015,-5.199,-5.2048,-5.2191,-5.199,-5.199,-5.2029,-5.2346,-5.2386,-5.2414,-5.2162,-5.2166,-5.2169,-5.2345,0,-5.1318,-5.1384,-5.1451,-5.1495,-5.1531,-5.1611,-5.1593,-5.1632,-5.1606,-5.1601,-5.1695,-5.1707,-5.1756,-5.1781,-5.1755,-5.1893,-5.1868,-5.1817,-5.1735,-5.188,-5.1938,-5.1961,-5.1651,-5.1648,-5.1646,-5.1644,0,0,-5.1116,-5.121,-5.118,-5.1254,-5.1283,-5.1221,-5.1309,-5.1329,-5.137,-5.139,-5.1344,-5.1456,-5.1468,-5.1583,-5.1627,-5.1645,-5.1669,-5.1618,-5.181,-5.1829,-5.1846,-5.1908,-5.1932,-5.164,-5.164,-5.1639,-5.1638,0,-5.1028,-5.1043,-5.1131,-5.115,-5.1177,-5.1168,-5.1189,-5.1204,-5.1205,-5.1295,-5.1242,-5.1295,-5.1384,-5.1404,-5.1426,-5.1603,-5.156,-5.1619,-5.1723,-5.1789,-5.1811,-5.183,-5.1895,-5.1919,-5.1633,-5.1633,-5.1633,0,-5.086,-5.0873,-5.0912,-5.0973,-5.0989,-5.1052,-5.0962,-5.1031,-5.1077,-5.1004,-5.1095,-5.1098,-5.1122,-5.1233,-5.1281,-5.124,-5.1463,-5.1388,-5.1401,-5.1406,-5.1469,-5.1495,-5.1518,-5.1216,-5.1214,-5.1213,0,0,-5.0786,-5.0847,-5.085,-5.0952,-5.0967,-5.0953,-5.0983,-5.096,-5.0984,-5.0994,-5.0998,-5.1022,-5.1073,-5.1108,-5.1155,-5.1278,-5.1281,-5.1337,-5.1357,-5.1373,-5.1387,-5.1455,-5.148,-5.1208,-5.1208,-5.1208,0,0,-5.075,-5.076,-5.0729,-5.0845,-5.087,-5.0879,-5.0942,-5.0905,-5.0945,-5.0934,-5.0896,-5.0901,-5.1003,-5.1008,-5.0942,-5.1125,-5.1044,-5.1059,-5.1118,-5.1143,-5.1162,-5.116,-5.085,0,0,0,0,0,-5.0651,-5.0758,-5.0731,-5.0748,-5.0822,-5.0895,-5.0904,-5.0877,-5.0821,-5.0871,-5.0869,-5.0819,-5.0965,-5.0906,-5.0922,-5.0997,-5.1142,-5.1153,-5.1165,-5.127,-5.1296,-5.1317,0,0,0,0,0,0,-5.0657,-5.0677,-5.0728,-5.0742,-5.0759,-5.0891,-5.079,-5.0786,-5.0815,-5.0804,-5.0822,-5.082,-5.0797,-5.0896,-5.0911,-5.0982,-5.0845,-5.1146,-5.1156,-5.1165,-5.1279,-5.13,-5.1318,0,0,0,0,0,-5.0662,-5.0678,-5.0805,-5.074,-5.0755,-5.0744,-5.0786,-5.0781,-5.0803,-5.0799,-5.0796,-5.078,-5.08,-5.081,-5.0905,-5.0976,-5.0835,-5.084,-5.1153,-5.1161,-5.1168,-5.1289,0,0,0,0,0,0,-5.0665,-5.0674,-5.0807,-5.081,-5.0698,-5.0736,-5.0741,-5.0778,-5.0795,-5.0793,-5.0755,-5.0746,-5.0803,-5.0811,-5.0819,-5.0976,-5.0826,-5.0832,-5.0835,-5.1159,-5.1165,-5.117,0,0,0,0,0,0,-5.0665,-5.0677,-5.0808,-5.0756,-5.0753,-5.0729,-5.0734,-5.0809,-5.0796,-5.075,-5.0743,-5.0751,-5.0789,-5.0812,-5.0818,-5.0936,-5.0819,-5.0825,-5.0829,-5.0831,-5.1164,-5.1169,0,0,0,0,0,0,-5.067,-5.068,-5.0755,-5.0753,-5.075,-5.0784,-5.0795,-5.0872,-5.0753,-5.075,-5.0741,-5.0736,-5.0792,-5.0797,-5.0817,-5.0933,-5.0935,-5.082,-5.0823,-5.0826,-5.0828,0,0,0,0,0,0,0,-5.0673,-5.061,-5.0788,-5.075,-5.0747,-5.084,-5.0841,-5.0842,-5.0752,-5.0747,-5.0742,-5.0738,-5.0788,-5.0794,-5.08,-5.0931,0,0,-5.0819,-5.0822,0,0,0,0,0,0,0,0,-5.0605,-5.0608,-5.0788,-5.0789,-5.0789,-5.084,-5.0841,-5.0842,-5.0751,-5.0747,-5.0743,-5.074,-5.0789,-5.0794,-5.0799,0,0,0,0,0,0,0,0,0,0,0,0,0,0,0,-5.0788,-5.0789,0,-5.0841,-5.0841,-5.0842,-5.075,-5.0747,-5.0744,-5.0741,-5.0791,-5.0795,-5.0799,0,0,0,0,0,0,0,0,0,0,0,0,0,0,0,0,0,0,0,0,0,0,0,0,0,0,0,0,0,0,0,0,0,0,0,0,0,0,0,0,0,0,0,0,0,0,0,0,0,0,0,0,0,0,0,0,0,0,0,0,0,0,0,0,0,0,0,0,0]}]]]